Content
SEND FEEDBACK

Daily
Averages
Monthly
Summary
Canada

HAMILTON, ONTARIO


Home > North America > Canada > Ontario
Elevation: 776 feet     Latitude: 43 10N     Longitude: 079 55W

WEATHER
 
SELECT A DAY
Number of Records: 170,582;   Date Range: 1/1/95 - 10/23/14
 
SHARE

PRINT THIS DATA

[ ← Previous Day ]
WEATHER ALMANAC - MAY 6, 2013
[ Next Day → ]
[ °C ]   °F
Weather ElementAverageHighLow
Temperature58.3 °F70 °F (2:00 pm)46.4 °F (3:00 am)
Dewpoint35.9 °F41 °F (1:00 am)30.2 °F (3:00 pm)
Humidity44.2 %81 % (3:00 am)23 % (2:00 pm)
Barometer30.10 in30.16 in (9:00 am)30.05 in (5:00 pm)
Wind Speed7.3 mph13.8 mph (6:00 pm)
Weather ElementAverage
Visibility15 mi
Wind DirectionE (86.7 °)

Weather ElementTotal
Precipitation---
Heating Degree Days6.8 (Base 65)
Growing Degree Days8.2 (Base 50)
Averaged from 27 records on May 6, 2013
WEATHER CONDITIONS BREAKOUT
WIND DIRECTION BREAKOUT
WEATHER BY HOUR - MAY 6, 2013
[ °C ]   °F
Local TimeTemperatureDewpointHumidityBarometerVisibilityWind DirectionWind SpeedGust SpeedPrecipitationEventsConditions
1:00 AM48.2 °F41.0 °F76 %30.10 in15.0 miNNE (30°)9.2 mphPartly Cloudy
2:00 AM49.0 °F40.0 °F62 %30.10 in15.0 miNE (40°)5.8 mphClear
2:00 AM48.2 °F39.2 °F71 %30.10 in15.0 miNE (40°)5.8 mphPartly Cloudy
3:00 AM46.4 °F41.0 °F81 %30.10 in15.0 miNE (50°)3.5 mphPartly Cloudy
4:00 AM51.8 °F37.4 °F58 %30.10 in15.0 miSSW (200°)4.6 mphPartly Cloudy
5:00 AM50.0 °F35.6 °F58 %30.11 in15.0 miSSW (200°)9.2 mphPartly Cloudy
6:00 AM50.0 °F32.0 °F50 %30.12 in15.0 miSSE (150°)3.5 mphMostly Cloudy
7:00 AM51.8 °F35.6 °F54 %30.14 in15.0 miSouth (180°)6.9 mphScattered Clouds
8:00 AM56.0 °F39.0 °F41 %30.15 in15.0 miSouth (170°)5.8 mphClear
8:00 AM55.4 °F39.2 °F54 %30.15 in15.0 miSouth (170°)5.8 mphScattered Clouds
9:00 AM59.0 °F39.2 °F48 %30.16 in15.0 miSSE (160°)4.6 mphMostly Cloudy
10:00 AM60.8 °F35.6 °F39 %30.16 in15.0 miVariable2.3 mphScattered Clouds
11:00 AM62.6 °F37.4 °F39 %30.16 in15.0 miSSE (160°)3.5 mphScattered Clouds
12:00 PM66.2 °F35.6 °F32 %30.14 in15.0 miSE (130°)4.6 mphScattered Clouds
1:00 PM68.0 °F35.6 °F30 %30.12 in15.0 miEast (100°)4.6 mphMostly Cloudy
2:00 PM70.0 °F41.0 °F23 %30.11 in15.0 miENE (60°)5.8 mphClear
2:00 PM69.8 °F41.0 °F35 %30.10 in15.0 miNE (50°)8.1 mphMostly Cloudy
3:00 PM69.8 °F30.2 °F23 %30.09 in15.0 miNE (50°)12.7 mphMostly Cloudy
4:00 PM69.8 °F33.8 °F27 %30.07 in15.0 miENE (60°)9.2 mphMostly Cloudy
5:00 PM69.8 °F33.8 °F27 %30.05 in15.0 miNE (50°)12.7 mphMostly Cloudy
6:00 PM66.2 °F30.2 °F26 %30.05 in15.0 miENE (60°)13.8 mphMostly Cloudy
7:00 PM62.6 °F32.0 °F32 %30.05 in15.0 miNE (50°)11.5 mphMostly Cloudy
8:00 PM57.0 °F33.0 °F28 %30.05 in15.0 miNE (50°)9.2 mphClear
8:00 PM57.2 °F33.8 °F41 %30.05 in15.0 miNE (50°)9.2 mphMostly Cloudy
9:00 PM55.4 °F30.2 °F38 %30.05 in15.0 miNE (40°)10.4 mphMostly Cloudy
10:00 PM51.8 °F33.8 °F50 %30.07 in15.0 miNNE (30°)9.2 mphMostly Cloudy
11:00 PM51.8 °F33.8 °F50 %30.08 in15.0 miNorth (10°)4.6 mphMostly Cloudy
Hourly data recorded from CYHM, located miles away from Hamilton, Ontario







STORIES FROM OUR PARTNERS